Location: ?astrovice
(49.6513°N, 14.9287°E)
Time: 02:39:47
(UTC+00:00)

COSMOS 2455 - Pass Details

Date: 09 April 2020
Orbit: 899 x 910 km, 67.1° (Epoch: 03 June)

Event Time Altitude Azimuth Distance (km) Brightness Sun altitude
Rises 20:01:49 0° 318° (NW) 3,546 7.5 -20.4°
Reaches altitude 10° 20:04:38 10° 308° (NW) 2,602 6.4 -20.7°
Maximum altitude 20:09:43 29° 250° (WSW) 1,600 4.4 -21.3°
Enters shadow 20:13:53 14° 198° (SSW) 2,319 4.7 -21.8°
